This demonstration page uses our WeatherBlox Daily Observations layout. Learn more.

Left ArrowRight Arrow

36.19886, -115.1175

Hourly Observations for March 29, 2017

Temp ( °F °C ) Dew Point ( °F °C ) Humidity (%) Winds ( mph kmh ) Pressure ( in mb ) Visibility ( mi km ) Precip ( " mm )
12:53 am 00:53 Clear 58 14.4 24 -4.4 27 27 N N/A 30.14 1021 10 16 N/A
1:53 am 01:53 Clear 56 13.3 27 -2.8 33 33 WSW 5 7 30.14 1021 10 16 N/A
2:53 am 02:53 Clear 54 12.2 26 -3.3 34 34 N N/A 30.14 1021 10 16 N/A
3:53 am 03:53 Clear 56 13.3 26 -3.3 32 32 N N/A 30.13 1020 10 16 N/A
4:53 am 04:53 Clear 56 13.3 25 -3.9 30 30 NNE 10 17 30.13 1020 10 16 N/A
5:16 am 05:16 Clear 55 13 27 -3 33 33 ENE 7 11 30.09 1019 10 16 N/A
5:53 am 05:53 Clear 55 12.8 25 -3.9 31 31 NNW 7 11 30.13 1020 10 16 N/A
6:53 am 06:53 Sunny 54 12.2 26 -3.3 34 34 NE 8 13 30.15 1021 10 16 N/A
7:53 am 07:53 Sunny 58 14.4 25 -3.9 28 28 NW 9 15 30.18 1022 10 16 N/A
8:53 am 08:53 Sunny 62 16.7 26 -3.3 25 25 N N/A 30.19 1022 10 16 N/A
9:53 am 09:53 Sunny 64 17.8 25 -3.9 23 23 NNW 6 9 30.19 1023 10 16 N/A
10:53 am 10:53 Sunny 65 18.3 24 -4.4 21 21 ESE 5 7 30.19 1022 10 16 N/A
11:53 am 11:53 Sunny 68 20 22 -5.6 17 17 N N/A 30.16 1021 10 16 N/A
12:53 pm 12:53 Sunny 70 21.1 23 -5 17 17 S 9 15 30.14 1021 10 16 N/A
1:53 pm 13:53 Sunny 73 22.8 23 -5 15 15 SSE 6 9 30.11 1020 10 16 N/A
2:53 pm 14:53 Sunny 73 22.8 22 -5.6 15 15 SSE 5 7 30.08 1019 10 16 N/A
3:53 pm 15:53 Sunny 76 24.4 21 -6.1 13 13 E 5 7 30.05 1018 10 16 N/A
4:53 pm 16:53 Sunny 75 23.9 21 -6.1 13 13 N N/A 30.02 1017 10 16 N/A
5:53 pm 17:53 Sunny 76 24.4 22 -5.6 13 13 ESE 3 6 30.01 1016 10 16 N/A
6:53 pm 18:53 Sunny 73 22.8 22 -5.6 15 15 ESE 6 9 30.01 1016 10 16 N/A
7:53 pm 19:53 Clear 70 21.1 22 -5.6 16 16 ESE 5 7 30.00 1016 10 16 N/A
8:53 pm 20:53 Clear 70 21.1 23 -5 17 17 N N/A 30.01 1016 10 16 N/A
9:53 pm 21:53 Clear 67 19.4 30 -1.1 25 25 WNW 6 9 30.00 1016 10 16 N/A
10:53 pm 22:53 Clear 63 17.2 30 -1.1 29 29 NW 3 6 29.99 1016 10 16 N/A
11:53 pm 23:53 Clear 61 16.1 30 -1.1 31 31 NNW 6 9 29.98 1015 10 16 N/A

Powered by AerisWeather